Date,TemperatureHighF,TemperatureAvgF,TemperatureLowF,DewpointHighF,DewpointAvgF,DewpointLowF,HumidityHigh,HumidityAvg,HumidityLow,PressureMaxIn,PressureMinIn,WindSpeedMaxMPH,WindSpeedAvgMPH,GustSpeedMaxMPH,PrecipitationSumIn
2013-2-1,49.4,44.3,39.1,47.1,43.6,38.8,100,98,81,30.45,30.37,2,0,5,0.00
2013-2-2,41.5,38.5,35.7,41.3,38.4,35.7,100,100,97,30.43,30.30,1,0,4,0.00
2013-2-3,47.4,43.2,37.3,44.6,42.1,37.3,100,96,87,30.35,30.25,2,1,5,0.00
2013-2-4,49.9,45.4,42.7,44.9,43.1,41.6,100,92,77,30.25,29.92,2,0,9,0.00
2013-2-5,50.2,45.5,43.1,44.5,42.8,40.9,100,90,76,29.98,29.88,6,2,17,0.00
2013-2-6,49.7,45.0,42.7,42.4,40.6,38.5,95,85,69,30.09,29.83,4,2,11,0.00
2013-2-7,48.4,41.8,31.7,41.6,36.5,30.9,100,82,61,30.23,29.83,5,1,16,0.00
2013-2-8,43.7,39.3,28.5,38.5,35.8,28.3,100,88,77,30.35,30.23,3,1,11,0.00
2013-2-9,42.8,40.6,37.7,41.1,39.9,37.4,100,98,91,30.38,30.30,1,0,9,0.00
2013-2-10,44.3,40.4,33.1,40.8,37.9,32.9,100,91,81,30.42,30.36,2,0,4,0.00
2013-2-11,46.3,41.5,36.7,41.1,39.2,36.6,100,92,77,30.40,30.36,2,0,5,0.00
2013-2-12,49.0,45.5,41.5,46.7,44.1,40.0,100,95,88,30.45,30.33,4,1,15,0.00
2013-2-13,48.2,44.1,42.6,46.1,43.3,41.9,100,97,89,30.54,30.35,3,0,10,0.00
2013-2-14,48.1,44.7,41.7,45.1,43.2,40.7,100,94,86,30.59,30.53,2,0,7,0.00
2013-2-15,55.4,43.6,37.9,46.9,41.6,37.6,100,93,71,30.59,30.22,2,0,5,0.00
2013-2-16,52.5,42.6,34.8,44.2,40.9,34.4,100,94,66,30.24,30.14,6,1,14,0.00
2013-2-17,44.8,40.2,37.9,40.1,38.3,37.1,100,93,77,30.29,30.16,2,0,6,0.00
2013-2-18,45.4,39.6,34.4,39.2,36.6,34.1,100,89,71,30.16,29.80,3,0,8,0.00
2013-2-19,49.1,40.2,32.6,38.0,35.2,31.8,97,83,57,30.05,29.77,4,1,27,0.00
2013-2-20,44.3,38.3,32.1,40.1,36.6,31.6,100,94,77,30.08,30.04,4,0,14,0.01
2013-2-21,43.3,41.1,37.9,40.4,38.8,37.2,100,92,85,30.11,30.05,7,2,18,0.00
2013-2-22,45.4,41.9,38.8,42.1,38.8,34.1,95,89,79,30.09,29.73,8,4,22,0.00
2013-2-23,48.0,41.7,38.5,38.8,36.9,35.0,93,83,64,30.42,29.94,3,1,9,0.00
2013-2-24,46.5,43.3,39.8,39.1,37.0,35.5,89,79,68,30.42,29.99,5,2,14,0.00
2013-2-25,49.3,42.9,34.1,39.7,36.9,32.3,96,80,57,30.34,29.93,7,2,16,0.00
2013-2-26,47.3,41.1,32.3,38.1,33.7,31.2,100,76,54,30.39,30.24,3,1,12,0.01
2013-2-27,49.1,43.0,37.3,43.8,40.7,36.5,100,92,72,30.35,30.25,3,0,7,0.43
2013-2-28,52.1,45.7,41.2,50.9,45.1,40.9,100,98,93,30.37,30.23,4,1,11,0.31